When you browse on this site, cookies collect data to enhance your experience and personalize the content and advertising you see.
Visit our Privacy Policy to learn more. By continuing to use the site, you agree to this use of cookies and data.
  • Em Portugal
  • Lista de países
  • Para 7 dias
  • Temperatura da água
  • Mapas de satélite
  • Mapa do tempo
  • Widgets de tempo
  • user-avatar
    Iniciar Sessão

    Previsão horária em Wilczogora

    Hoje, 24 Maio, Sexta-feira

    Tempo Temperatura Precipitação Vento Pressão Humidade
    00:00 +9°C° 0 mm 2 m/s 752 mmHg 80%
    01:00 +8°C° 0 mm 2 m/s 752 mmHg 81%
    02:00 +8°C° 0 mm 2 m/s 752 mmHg 82%
    03:00 +7°C° 0 mm 2 m/s 752 mmHg 83%
    04:00 +7°C° 0 mm 2 m/s 752 mmHg 83%
    05:00 +9°C° 0 mm 2 m/s 752 mmHg 80%
    06:00 +10°C° 0 mm 2 m/s 752 mmHg 76%
    07:00 +13°C° 0 mm 2 m/s 752 mmHg 73%
    08:00 +14°C° 0 mm 2 m/s 752 mmHg 68%
    09:00 +16°C° 0 mm 2 m/s 752 mmHg 63%
    10:00 +17°C° 0 mm 2 m/s 752 mmHg 59%
    11:00 +18°C° 0 mm 2 m/s 751 mmHg 56%
    12:00 +19°C° 0 mm 2 m/s 751 mmHg 53%
    13:00 +20°C° 0 mm 2 m/s 751 mmHg 51%
    14:00 +20°C° 0 mm 2 m/s 751 mmHg 51%
    15:00 +20°C° 0 mm 2 m/s 750 mmHg 51%
    16:00 +20°C° 0 mm 2 m/s 750 mmHg 51%
    17:00 +19°C° 0 mm 2 m/s 750 mmHg 56%
    18:00 +18°C° 0 mm 2 m/s 749 mmHg 61%
    19:00 +16°C° 0 mm 1 m/s 749 mmHg 66%
    20:00 +15°C° 0 mm 2 m/s 749 mmHg 67%
    21:00 +14°C° 0 mm 2 m/s 749 mmHg 67%
    22:00 +13°C° 0 mm 2 m/s 749 mmHg 68%
    23:00 +13°C° 0 mm 2 m/s 749 mmHg 69%

    Amanhã, 25 Maio, Sábado

    Tempo Temperatura Precipitação Vento Pressão Humidade
    00:00 +12°C° 0 mm 2 m/s 749 mmHg 70%
    01:00 +11°C° 0 mm 3 m/s 749 mmHg 71%
    02:00 +11°C° 0 mm 3 m/s 749 mmHg 72%
    03:00 +10°C° 0 mm 3 m/s 749 mmHg 74%
    04:00 +10°C° 0 mm 3 m/s 748 mmHg 75%
    05:00 +11°C° 0 mm 3 m/s 749 mmHg 76%
    06:00 +13°C° 0 mm 3 m/s 749 mmHg 78%
    07:00 +14°C° 0 mm 3 m/s 749 mmHg 79%
    08:00 +15°C° 0 mm 4 m/s 749 mmHg 75%
    09:00 +17°C° 0 mm 4 m/s 749 mmHg 71%
    10:00 +19°C° 0 mm 4 m/s 749 mmHg 67%
    11:00 +19°C° 0 mm 5 m/s 749 mmHg 66%
    12:00 +19°C° 0 mm 5 m/s 749 mmHg 65%
    13:00 +19°C° 0 mm 5 m/s 749 mmHg 64%
    14:00 +19°C° 0 mm 5 m/s 749 mmHg 63%
    15:00 +19°C° 0 mm 5 m/s 749 mmHg 63%
    16:00 +19°C° 0 mm 5 m/s 749 mmHg 62%
    17:00 +18°C° 0 mm 4 m/s 749 mmHg 66%
    18:00 +17°C° 0 mm 3 m/s 749 mmHg 70%
    19:00 +16°C° 0 mm 2 m/s 749 mmHg 73%
    20:00 +15°C° 0 mm 2 m/s 749 mmHg 77%
    21:00 +13°C° 0 mm 2 m/s 750 mmHg 81%
    22:00 +12°C° 0 mm 2 m/s 750 mmHg 85%
    23:00 +10°C° 0 mm 2 m/s 750 mmHg 88%

    Depois de amanhã, 26 Maio, Domingo

    Tempo Temperatura Precipitação Vento Pressão Humidade
    00:00 +10°C° 0 mm 2 m/s 750 mmHg 90%
    01:00 +9°C° 0 mm 2 m/s 750 mmHg 92%
    02:00 +9°C° 0 mm 2 m/s 750 mmHg 92%
    03:00 +8°C° 0 mm 2 m/s 750 mmHg 92%
    04:00 +8°C° 0 mm 2 m/s 750 mmHg 92%
    05:00 +10°C° 0 mm 3 m/s 750 mmHg 87%
    06:00 +12°C° 0 mm 3 m/s 750 mmHg 82%
    07:00 +13°C° 0 mm 4 m/s 750 mmHg 77%
    08:00 +15°C° 0.1 mm 5 m/s 750 mmHg 74%
    09:00 +16°C° 0.1 mm 5 m/s 749 mmHg 70%
    10:00 +17°C° 0.1 mm 6 m/s 749 mmHg 67%
    11:00 +17°C° 0.1 mm 6 m/s 749 mmHg 65%
    12:00 +19°C° 0.1 mm 6 m/s 749 mmHg 63%
    13:00 +19°C° 0.1 mm 6 m/s 748 mmHg 61%
    14:00 +20°C° 0.1 mm 6 m/s 748 mmHg 61%
    15:00 +20°C° 0.1 mm 6 m/s 748 mmHg 60%
    16:00 +20°C° 0.1 mm 6 m/s 748 mmHg 60%
    17:00 +19°C° 0 mm 5 m/s 748 mmHg 65%
    18:00 +18°C° 0 mm 4 m/s 748 mmHg 70%
    19:00 +17°C° 0 mm 3 m/s 748 mmHg 75%
    20:00 +16°C° 0 mm 3 m/s 748 mmHg 78%
    21:00 +14°C° 0 mm 3 m/s 748 mmHg 80%
    22:00 +13°C° 0 mm 3 m/s 748 mmHg 83%
    23:00 +12°C° 0 mm 3 m/s 748 mmHg 85%

    27 Maio, Segunda-feira

    Tempo Temperatura Precipitação Vento Pressão Humidade
    00:00 +12°C° 0 mm 3 m/s 748 mmHg 88%
    01:00 +11°C° 0 mm 3 m/s 748 mmHg 90%
    02:00 +11°C° 0 mm 3 m/s 748 mmHg 90%
    03:00 +11°C° 0 mm 3 m/s 747 mmHg 91%
    04:00 +11°C° 0 mm 3 m/s 747 mmHg 92%
    05:00 +13°C° 0 mm 4 m/s 747 mmHg 86%
    06:00 +15°C° 0 mm 5 m/s 747 mmHg 81%
    07:00 +16°C° 0 mm 5 m/s 747 mmHg 76%
    08:00 +19°C° 0 mm 6 m/s 747 mmHg 71%
    09:00 +20°C° 0 mm 6 m/s 747 mmHg 67%
    10:00 +22°C° 0 mm 7 m/s 747 mmHg 62%
    11:00 +22°C° 0.4 mm 7 m/s 747 mmHg 63%
    12:00 +22°C° 0.4 mm 7 m/s 746 mmHg 64%
    13:00 +23°C° 0.4 mm 7 m/s 746 mmHg 65%
    14:00 +22°C° 0.6 mm 6 m/s 746 mmHg 68%
    15:00 +22°C° 0.6 mm 5 m/s 746 mmHg 71%
    16:00 +21°C° 0.6 mm 5 m/s 746 mmHg 73%
    17:00 +20°C° 0.2 mm 4 m/s 746 mmHg 77%
    18:00 +19°C° 0.2 mm 3 m/s 746 mmHg 82%
    19:00 +18°C° 0.2 mm 2 m/s 746 mmHg 86%
    20:00 +17°C° 0 mm 2 m/s 747 mmHg 86%
    21:00 +16°C° 0 mm 2 m/s 747 mmHg 87%
    22:00 +14°C° 0 mm 2 m/s 747 mmHg 87%
    23:00 +14°C° 0 mm 2 m/s 747 mmHg 89%

    28 Maio, Terça-feira

    Tempo Temperatura Precipitação Vento Pressão Humidade
    00:00 +12°C° 0 mm 3 m/s 747 mmHg 91%
    01:00 +11°C° 0 mm 3 m/s 747 mmHg 92%
    02:00 +11°C° 0 mm 3 m/s 747 mmHg 93%
    03:00 +11°C° 0 mm 3 m/s 747 mmHg 94%
    04:00 +11°C° 0 mm 3 m/s 747 mmHg 94%
    05:00 +12°C° 0 mm 3 m/s 747 mmHg 91%
    06:00 +13°C° 0 mm 4 m/s 746 mmHg 88%
    07:00 +14°C° 0 mm 4 m/s 746 mmHg 84%
    08:00 +14°C° 0.2 mm 4 m/s 746 mmHg 83%
    09:00 +15°C° 0.2 mm 4 m/s 746 mmHg 82%
    10:00 +17°C° 0.2 mm 4 m/s 745 mmHg 80%
    11:00 +15°C° 1 mm 4 m/s 745 mmHg 84%
    12:00 +15°C° 1 mm 4 m/s 745 mmHg 87%
    13:00 +15°C° 1 mm 4 m/s 744 mmHg 90%
    14:00 +15°C° 0.5 mm 5 m/s 744 mmHg 91%
    15:00 +15°C° 0.5 mm 5 m/s 743 mmHg 92%
    16:00 +15°C° 0.5 mm 5 m/s 743 mmHg 93%
    17:00 +15°C° 0.1 mm 5 m/s 743 mmHg 93%
    18:00 +15°C° 0.1 mm 5 m/s 743 mmHg 93%
    19:00 +15°C° 0.1 mm 5 m/s 742 mmHg 94%
    20:00 +15°C° 0.2 mm 5 m/s 742 mmHg 94%
    21:00 +14°C° 0.2 mm 4 m/s 742 mmHg 95%
    22:00 +14°C° 0.2 mm 4 m/s 742 mmHg 96%
    23:00 +14°C° 0.4 mm 4 m/s 742 mmHg 96%

    29 Maio, Quarta-feira

    Tempo Temperatura Precipitação Vento Pressão Humidade
    00:00 +14°C° 0.4 mm 4 m/s 742 mmHg 97%
    01:00 +13°C° 0.4 mm 4 m/s 742 mmHg 97%
    02:00 +13°C° 0.5 mm 3 m/s 742 mmHg 97%
    03:00 +13°C° 0.5 mm 3 m/s 742 mmHg 97%
    04:00 +13°C° 0.5 mm 3 m/s 742 mmHg 97%
    05:00 +13°C° 0.3 mm 3 m/s 742 mmHg 97%
    06:00 +14°C° 0.3 mm 2 m/s 742 mmHg 97%
    07:00 +14°C° 0.3 mm 2 m/s 743 mmHg 96%
    08:00 +13°C° 0.1 mm 3 m/s 743 mmHg 95%
    09:00 +13°C° 0.1 mm 3 m/s 744 mmHg 94%
    10:00 +13°C° 0.1 mm 3 m/s 744 mmHg 92%
    11:00 +14°C° 0.1 mm 3 m/s 744 mmHg 91%
    12:00 +14°C° 0.1 mm 3 m/s 745 mmHg 89%
    13:00 +16°C° 0.1 mm 2 m/s 745 mmHg 88%
    14:00 +16°C° 0.2 mm 2 m/s 746 mmHg 89%
    15:00 +16°C° 0.2 mm 3 m/s 746 mmHg 90%
    16:00 +14°C° 0.2 mm 3 m/s 747 mmHg 91%
    17:00 +14°C° 0.2 mm 3 m/s 747 mmHg 92%
    18:00 +14°C° 0.2 mm 3 m/s 748 mmHg 92%
    19:00 +13°C° 0.2 mm 4 m/s 748 mmHg 92%
    20:00 +12°C° 0 mm 4 m/s 749 mmHg 93%
    21:00 +11°C° 0 mm 4 m/s 749 mmHg 94%
    22:00 +10°C° 0 mm 3 m/s 750 mmHg 95%
    23:00 +10°C° 0 mm 4 m/s 750 mmHg 94%
    Mostrar mais